Lincoln County, Oregon, United States
Lat: 44.65N, Lon: 123.85W
Wx Zone: ORZ004
Local Info
Past Weather Observations for Yesterday

NOTE: This archive is for the closest National Weather Service station to Lincoln County. Information may differ from the station used for current weather conditions.

Click here for Long-term Archive

Time Weather Temperature Dewpoint Humidity Pressure Winds Precip Visibility
23:55
Mostly Cloudy
50°F / 10°C 48°F / 9°C 94% 30.04 in
(1017 mb)
N 3.5 mph
(N 6 kph)
- 7SM
23:35
Overcast
50°F / 10°C 48°F / 9°C 94% 30.04 in
(1017 mb)
N 3.5 mph
(N 6 kph)
- 7SM
23:15
Overcast
52°F / 11°C 48°F / 9°C 88% 30.04 in
(1017 mb)
NNW 4.6 mph
(NNW 7 kph)
- 7SM
22:55
Overcast
52°F / 11°C 48°F / 9°C 88% 30.04 in
(1017 mb)
N 5.8 mph
(N 9 kph)
- 7SM
22:35
Overcast
52°F / 11°C 48°F / 9°C 88% 30.04 in
(1017 mb)
NNW 4.6 mph
(NNW 7 kph)
- 7SM
22:15
Overcast
52°F / 11°C 48°F / 9°C 88% 30.04 in
(1017 mb)
NNW 5.8 mph
(NNW 9 kph)
- 7SM
21:55
Overcast
52°F / 11°C 48°F / 9°C 88% 30.04 in
(1017 mb)
N 8.1 mph
(N 13 kph)
- 7SM
21:35
Overcast
52°F / 11°C 48°F / 9°C 88% 30.04 in
(1017 mb)
N 4.6 mph
(N 7 kph)
- 7SM
21:15
Overcast
52°F / 11°C 48°F / 9°C 88% 30.04 in
(1017 mb)
N 5.8 mph
(N 9 kph)
- 7SM
20:55
Overcast
52°F / 11°C 50°F / 10°C 94% 30.04 in
(1017 mb)
NNW 9.2 mph
(NNW 15 kph)
- 7SM
20:35
Overcast
52°F / 11°C 50°F / 10°C 94% 30.04 in
(1017 mb)
NNW 8.1 mph
(NNW 13 kph)
- 7SM
20:15
Overcast
52°F / 11°C 50°F / 10°C 94% 30.04 in
(1017 mb)
NNW 9.2 mph
(NNW 15 kph)
- 7SM
19:55
Overcast
52°F / 11°C 50°F / 10°C 94% 30.04 in
(1017 mb)
N 5.8 mph
(N 9 kph)
- 7SM
19:35
Overcast
Fog And Mist
52°F / 11°C 50°F / 10°C 94% 30.04 in
(1017 mb)
N 6.9 mph
(N 11 kph)
- 5SM
19:15
Overcast
Fog And Mist
52°F / 11°C 50°F / 10°C 94% 30.04 in
(1017 mb)
NNW 6.9 mph
(NNW 11 kph)
- 5SM
18:55
Overcast
54°F / 12°C 50°F / 10°C 88% 30.04 in
(1017 mb)
NNW 8.1 mph
(NNW 13 kph)
- 7SM
18:35
Overcast
54°F / 12°C 50°F / 10°C 88% 30.04 in
(1017 mb)
NNW 9.2 mph
(NNW 15 kph)
- 7SM
18:15
Overcast
Fog And Mist
54°F / 12°C 50°F / 10°C 88% 30.04 in
(1017 mb)
NNW 6.9 mph
(NNW 11 kph)
- 5SM
17:55
Overcast
54°F / 12°C 52°F / 11°C 94% 30.04 in
(1017 mb)
NNW 5.8 mph
(NNW 9 kph)
- 10SM
17:35
Overcast
54°F / 12°C 52°F / 11°C 94% 30.04 in
(1017 mb)
N 10.4 mph
(N 17 kph)
- 7SM
17:15
Overcast
54°F / 12°C 52°F / 11°C 94% 30.04 in
(1017 mb)
N 5.8 mph
(N 9 kph)
- 10SM
16:55
Overcast
54°F / 12°C 52°F / 11°C 94% 30.06 in
(1018 mb)
NW 5.8 mph
(NW 9 kph)
- 10SM
16:35
Overcast
54°F / 12°C 52°F / 11°C 94% 30.04 in
(1017 mb)
NNW 8.1 mph
(NNW 13 kph)
- 10SM
16:15
Mostly Cloudy
54°F / 12°C 52°F / 11°C 94% 30.04 in
(1017 mb)
NNW 12.7 mph
(NNW 20 kph)
- 10SM
15:55
Partly Cloudy
55°F / 13°C 52°F / 11°C 88% 30.06 in
(1018 mb)
NW 10.4 mph
(NW 17 kph)
- 10SM
15:35
Overcast
55°F / 13°C 52°F / 11°C 88% 30.06 in
(1018 mb)
NNW 12.7 mph
(NNW 20 kph)
- 10SM
15:15
Overcast
Fog And Mist
54°F / 12°C 52°F / 11°C 94% 30.06 in
(1018 mb)
NNW 9.2 mph
(NNW 15 kph)
- 2 1/2SM
14:55
Overcast
Fog And Mist
54°F / 12°C 52°F / 11°C 94% 30.06 in
(1018 mb)
NNW 6.9 mph
(NNW 11 kph)
- 4SM
14:35
Overcast
55°F / 13°C 52°F / 11°C 88% 30.06 in
(1018 mb)
NW 9.2 mph
(NW 15 kph)
- 7SM
14:15
Overcast
55°F / 13°C 52°F / 11°C 88% 30.06 in
(1018 mb)
NNW 10.4 mph
(NNW 17 kph)
- 10SM
13:55
Overcast
54°F / 12°C 52°F / 11°C 94% 30.06 in
(1018 mb)
NW 5.8 mph
(NW 9 kph)
- 10SM
13:35
Overcast
Fog And Mist
54°F / 12°C 52°F / 11°C 94% 30.06 in
(1018 mb)
NW 5.8 mph
(NW 9 kph)
- 5SM
13:15
Overcast
54°F / 12°C 52°F / 11°C 94% 30.06 in
(1018 mb)
NW 6.9 mph
(NW 11 kph)
- 10SM
12:55
Overcast
54°F / 12°C 52°F / 11°C 94% 30.06 in
(1018 mb)
NNW 6.9 mph
(NNW 11 kph)
- 7SM
12:35
Overcast
54°F / 12°C 52°F / 11°C 94% 30.06 in
(1018 mb)
NW 6.9 mph
(NW 11 kph)
- 10SM
12:15
Overcast
54°F / 12°C 52°F / 11°C 94% 30.06 in
(1018 mb)
NNW 6.9 mph
(NNW 11 kph)
- 7SM
11:55
Overcast
54°F / 12°C 52°F / 11°C 94% 30.06 in
(1018 mb)
NW 8.1 mph
(NW 13 kph)
- 7SM
11:35
Overcast
Fog And Mist
54°F / 12°C 52°F / 11°C 94% 30.09 in
(1019 mb)
NW 8.1 mph
(NW 13 kph)
- 4SM
11:15
Overcast
Fog And Mist
54°F / 12°C 52°F / 11°C 94% 30.09 in
(1019 mb)
NNW 9.2 mph
(NNW 15 kph)
- 5SM
10:55
Overcast
Fog And Mist
54°F / 12°C 52°F / 11°C 94% 30.09 in
(1019 mb)
NNW 6.9 mph
(NNW 11 kph)
- 5SM
10:35
Overcast
Fog And Mist
52°F / 11°C 52°F / 11°C 100% 30.09 in
(1019 mb)
NW 4.6 mph
(NW 7 kph)
- 5SM
10:15
Overcast
Fog And Mist
52°F / 11°C 52°F / 11°C 100% 30.09 in
(1019 mb)
WNW 4.6 mph
(WNW 7 kph)
- 4SM
09:55
Overcast
Fog And Mist
52°F / 11°C 52°F / 11°C 100% 30.09 in
(1019 mb)
NW 6.9 mph
(NW 11 kph)
- 5SM
09:35
Overcast
Fog And Mist
52°F / 11°C 52°F / 11°C 100% 30.09 in
(1019 mb)
NNW 4.6 mph
(NNW 7 kph)
- 4SM
09:15
Overcast
Fog And Mist
52°F / 11°C 52°F / 11°C 100% 30.09 in
(1019 mb)
NNW 4.6 mph
(NNW 7 kph)
- 3SM
08:55
Overcast
Fog And Mist
52°F / 11°C 52°F / 11°C 100% 30.09 in
(1019 mb)
NNW 4.6 mph
(NNW 7 kph)
- 3SM
08:35
Overcast
Fog And Mist
52°F / 11°C 52°F / 11°C 100% 30.09 in
(1019 mb)
NNW 4.6 mph
(NNW 7 kph)
- 1 3/4SM
08:15
Overcast
Fog And Mist
52°F / 11°C 50°F / 10°C 94% 30.09 in
(1019 mb)
N 3.5 mph
(N 6 kph)
- 2 1/2SM
08:00
Overcast
Fog And Mist
52°F / 11°C 50°F / 10°C 94% 30.09 in
(1019 mb)
NW 3.5 mph
(NW 6 kph)
- 2 1/2SM
07:35
Overcast
Fog And Mist
52°F / 11°C 50°F / 10°C 94% 30.09 in
(1019 mb)
NW 4.6 mph
(NW 7 kph)
- 3SM
07:15
Overcast
Fog And Mist
52°F / 11°C 50°F / 10°C 94% 30.09 in
(1019 mb)
NW 4.6 mph
(NW 7 kph)
- 2SM
06:55
Overcast
Fog And Mist
52°F / 11°C 50°F / 10°C 94% 30.09 in
(1019 mb)
NW 3.5 mph
(NW 6 kph)
- 3SM
06:35
Overcast
Fog And Mist
52°F / 11°C 50°F / 10°C 94% 30.06 in
(1018 mb)
NNW 4.6 mph
(NNW 7 kph)
- 2 1/2SM
06:15
Overcast
Fog And Mist
52°F / 11°C 50°F / 10°C 94% 30.06 in
(1018 mb)
NNW 3.5 mph
(NNW 6 kph)
- 2 1/2SM
05:55
Overcast
Fog And Mist
52°F / 11°C 50°F / 10°C 94% 30.06 in
(1018 mb)
N 4.6 mph
(N 7 kph)
- 3SM
05:35
Overcast
Fog And Mist
52°F / 11°C 50°F / 10°C 94% 30.06 in
(1018 mb)
Calm - 1 3/4SM
05:15
Overcast
Fog And Mist
52°F / 11°C 50°F / 10°C 94% 30.06 in
(1018 mb)
NNW 3.5 mph
(NNW 6 kph)
- 4SM
04:55
Overcast
Fog And Mist
52°F / 11°C 50°F / 10°C 94% 30.06 in
(1018 mb)
Calm - 3SM
04:35
Overcast
Fog And Mist
52°F / 11°C 50°F / 10°C 94% 30.06 in
(1018 mb)
Calm - 5SM
04:15
Overcast
Fog And Mist
50°F / 10°C 50°F / 10°C 100% 30.06 in
(1018 mb)
Calm - 5SM
03:55
Overcast
Fog And Mist
50°F / 10°C 50°F / 10°C 100% 30.06 in
(1018 mb)
Calm - 5SM
03:35
Overcast
Fog And Mist
50°F / 10°C 50°F / 10°C 100% 30.06 in
(1018 mb)
Calm - 5SM
03:15
Overcast
Fog And Mist
52°F / 11°C 50°F / 10°C 94% 30.09 in
(1019 mb)
Calm - 5SM
02:55
Overcast
50°F / 10°C 50°F / 10°C 100% 30.09 in
(1019 mb)
Calm - 7SM
02:35
Overcast
Fog And Mist
50°F / 10°C 50°F / 10°C 100% 30.09 in
(1019 mb)
NNW 3.5 mph
(NNW 6 kph)
- 5SM
02:15
Overcast
Fog And Mist
52°F / 11°C 50°F / 10°C 94% 30.09 in
(1019 mb)
N 4.6 mph
(N 7 kph)
- 5SM
01:55
Overcast
Fog And Mist
52°F / 11°C 50°F / 10°C 94% 30.09 in
(1019 mb)
N 4.6 mph
(N 7 kph)
- 4SM
01:35
Overcast
Fog And Mist
52°F / 11°C 50°F / 10°C 94% 30.09 in
(1019 mb)
N 4.6 mph
(N 7 kph)
- 3SM
01:15
Overcast
52°F / 11°C 50°F / 10°C 94% 30.09 in
(1019 mb)
NNW 4.6 mph
(NNW 7 kph)
- 7SM
00:55
Overcast
Fog And Mist
52°F / 11°C 50°F / 10°C 94% 30.09 in
(1019 mb)
N 4.6 mph
(N 7 kph)
- 5SM
00:35
Overcast
52°F / 11°C 50°F / 10°C 94% 30.09 in
(1019 mb)
N 5.8 mph
(N 9 kph)
- 7SM
00:15
Overcast
52°F / 11°C 50°F / 10°C 94% 30.09 in
(1019 mb)
N 3.5 mph
(N 6 kph)
- 7SM
Time Weather Temperature Dewpoint Humidity Pressure Winds Precip Visibility


Weather for websites

WeatherForYou.com, LLC is not responsible for any damages or problems caused by this service. Current weather conditions are obtained from the closest station including government and personal stations which may have varying degrees of accuracy. Weather forecasts are derived from the NOAA NDFD. Like all things, this site belongs to Jesus Christ... He just trusts us to maintain it. If you have any questions or comments email webmaster@weatherforyou.com

Copyright © 2015, WeatherForYou.com LLC. All rights reserved.